Simultaneous Nadir Overpasses (SNOs) Predictions

Prediction of SNOs between FY3D and NOAA-19 Satellite Orbit:

Table of predicted SNOs for the next 14.0 days since TLE Epoch: 12/23/2023
Index Date (FY3D) Time (FY3D) Lat,Lon (FY3D) SZA (FY3D ) Date (NOAA-19) Time (NOAA-19) Lat,Lon (NOAA-19) SZA (NOAA-19 ) Distance(km) Time Diff (sec)
1 12/26/2023 17:22:43 -75.86, 95.85 80.84 12/26/2023 17:21:35 -75.86, 93.23 80.79 71.01 68
2 12/26/2023 18:13:37 76.19, -98.03 99.52 12/26/2023 18:12:23 76.17, -98.37 99.50 9.46 74
3 12/26/2023 19:04:23 -76.26, 69.05 80.42 12/26/2023 19:03:25 -76.23, 69.12 80.44 3.03 58
4 12/26/2023 19:55:09 76.23,-123.55 99.55 12/26/2023 19:54:20 76.24,-123.61 99.56 1.65 49
5 12/26/2023 20:45:54 -76.25, 43.70 80.43 12/26/2023 20:45:23 -76.26, 43.72 80.42 0.95 31
6 12/26/2023 21:36:41 76.27,-149.07 99.59 12/26/2023 21:36:18 76.26,-149.01 99.58 2.02 23
7 12/26/2023 22:27:26 -76.29, 18.18 80.39 12/26/2023 22:27:21 -76.28, 18.31 80.40 3.77 5
8 12/26/2023 23:18:12 76.27,-174.43 99.59 12/26/2023 23:18:16 76.28,-174.41 99.60 1.91 4
9 12/27/2023 00:08:57 -76.28, -7.18 80.40 12/27/2023 00:09:20 -76.26, -7.25 80.42 3.17 23
10 12/27/2023 00:59:44 76.30, 160.05 99.63 12/27/2023 01:00:14 76.31, 160.18 99.62 3.41 30
11 12/27/2023 01:50:28 -76.28, -32.54 80.41 12/27/2023 01:51:18 -76.29, -32.66 80.40 3.23 50
12 12/27/2023 02:41:14 76.30, 134.70 99.62 12/27/2023 02:42:12 76.28, 134.61 99.60 2.77 58
13 12/27/2023 03:32:00 -76.36, -58.23 80.32 12/27/2023 03:33:14 -76.35, -57.89 80.34 8.83 74
14 12/27/2023 04:22:55 76.74, 107.63 100.09 12/27/2023 04:24:01 76.70, 110.77 99.99 80.25 66



Historial Predications of SNOs between FY3D and NOAA-19
